Home   Weather   Kennebunk   Past weeks

Flag for USA Past Weather in Kennebunk, Maine, USA — Yesterday and Last 2 Weeks

Now
24 °F

Clear.


Feels Like: 24 °F
Forecast: 21 / 35 °F
Wind: No wind

Location: Sanford Municipal

Current Time: Dec 4, 2016 at 7:44:37 pm

Latest Report: Dec 4, 2016 at 6:56 pm


Visibility: 10 mi

Pressure: 30.22 "Hg

Humidity: 84%

Dew Point: 20 °F

Location of KennebunkLocation

Past Weather in Kennebunk — Graph

°F

Kennebunk Temperature Yesterday

Maximum temperature yesterday: 43 °F (at 9:56 am)
Minimum temperature yesterday: 31 °F (at 11:56 pm)
Average temperature yesterday: 38 °F

High & Low Weather Summary for the Past Weeks

 TemperatureHumidityPressure
High54 °F (Dec 1, 12:56 pm)100% (Nov 19, 10:56 pm)30.43 "Hg (Nov 19, 10:56 pm)
Low18 °F (Nov 29, 12:56 am)43% (Dec 4, 1:56 pm)29.16 "Hg (Nov 20, 11:56 am)
Average36 °F81%29.92 "Hg
* Reported Nov 19 5:56 pm — Dec 4 5:56 pm, Kennebunk, Weather by CustomWeather, © 2016

Note: Actual official high and low records may vary slightly from our data, if they occured in-between our weather recording intervals... More about our weather records

Advertising

Kennebunk Weather History for the Previous 24 Hours

Scroll right to see more
 ConditionsComfort  
Time TempWeatherWind HumidityBarometerVisibility
5:56 pm
Sun, Dec 4
30 °FClear.3 mph66%30.21 "Hg10 mi
4:56 pm33 °FClear.7 mph56%30.21 "Hg10 mi
3:56 pm35 °FSunny.8 mph52%30.19 "Hg10 mi
2:56 pm39 °FSunny.13 mph45%30.18 "Hg10 mi
1:56 pm40 °FSunny.9 mph43%30.16 "Hg10 mi
12:56 pm40 °FSunny.10 mph45%30.16 "Hg10 mi
11:56 am39 °FSunny.9 mph45%30.17 "Hg10 mi
10:56 am37 °FSunny.7 mph48%30.18 "Hg10 mi
9:56 am35 °FSunny.7 mph54%30.19 "Hg10 mi
8:56 am33 °FSunny.3 mph61%30.19 "Hg10 mi
7:56 am30 °FSunny.6 mph72%30.17 "Hg10 mi
6:56 am30 °FPassing clouds.5 mph72%30.16 "Hg10 mi
5:56 am29 °FClear.5 mph72%30.15 "Hg10 mi
4:56 am31 °FOvercast.5 mph67%30.14 "Hg10 mi
3:56 am32 °FOvercast.6 mph69%30.13 "Hg10 mi
2:56 am32 °FOvercast.3 mph73%30.12 "Hg10 mi
1:56 am32 °FOvercast.3 mph75%30.10 "Hg10 mi
12:56 am32 °FPassing clouds.5 mph75%30.08 "Hg10 mi
11:56 pm
Sat, Dec 3
31 °FPassing clouds.6 mph79%30.06 "Hg10 mi
10:56 pm33 °FClear.6 mph70%30.06 "Hg10 mi
9:56 pm34 °FPassing clouds.6 mph70%30.05 "Hg10 mi
8:56 pm35 °FMostly cloudy.7 mph67%30.04 "Hg10 mi
7:56 pm34 °FPassing clouds.8 mph70%30.03 "Hg10 mi
Weather by CustomWeather, © 2016

See weather overviewHow to use our weather pages